Погода в Керки

Погода в Керки : погода сейчас, прогноз погоды и архив. Всё, что Вы хотите узнать о погоде в Керки!

Хотите узнать прогноз погоды в Керки? Тогда Вам сюда: Погода в Керки

Поиск расширенной информации на нашем сайте:

Другие новости

Новости СМИ2

Главная страница сайта

Новости сайта

03.07.2017

Напоминаем, что на нашем специализированном сайте Метеоцентр.Азия вы можете получить высокодетализированные автоматические прогнозы погоды по пунктам России, СНГ и мира в авиационном формате (включающие направление и скорость ветра, видимость, явления погоды, количество и форму облачности, нижнюю и верхнюю границу облачности).

Рекомендуем: Свежая информация старые книги купить на сайте.

Погода в Керки - сегодня

Время (UTC), дата Ветер
(°,м/с) 
Видим.   Явления Облачность Т
(°С)
Тd
(°С)
f(%) Тe
(°С)
Pmin
(гПа)
dP
(гПа)
Po
(мм)
O2
(г/м3)
Тmin Tmax R s Состояние
почвы
21 23.05.18 150 (ЮВ) 10 км    ясно 
+23.4 +11.5 47 +27  1014.3  -0.2  740  272           
00 24.05.18 060 (СВ) 10 км    ясно 
+19.8 +12.3 62 +26  1014.5  -0.2  740  276           
03 24.05.18 тихо ()   20000 м    ясно 
+22.6 +13.9 58 +30  1014.7  0.5  740  273           
06 24.05.18 330 (СЗ) 20000 м    ясно 
+29.3 +13.4 38 +36  1014.3  0.3  740  267  +17.8         
09 24.05.18 260 (З) 20000 м    ясно 
+33 +10.9 26 +36  1012.5  -1.5  739  264           
12 24.05.18 340 (С) 20000 м    ясно 
+34 +8.8 21 +34  1009.8  -2.6  737  263           
15 24.05.18 360 (С) 20000 м    ясно 
+30.6 +4.6 19 +31  1009.3  -0.8  737  266    +34.3       
18 24.05.18 010 (С) 10 км    ясно 
+25.6 +8.1 33 +26  1009.8  0.1  737  270    +34.3       
21 24.05.18 320 (СЗ) 10 км    ясно 
+19.4 +8.2 48 +20  1009.2  -1.1  736  275           
00 25.05.18 тихо ()   10 км    ясно 
+15.8 +6.7 55 +16  1009.6  736  279           
03 25.05.18 170 (Ю) 20000 м    ясно 
+18.6 +7.7 49 +20  1010.4  737  277  +14.9        сухая 
06 25.05.18 160 (Ю) 20000 м    ясно 
+29.6 +9.8 29 +31  1009.4  737  266  +14.9         
09 25.05.18 210 (ЮЗ) 20000 м    ясно 
+33.9 +8 20 +34  1007.9  -1  736  262           
12 25.05.18 110 (В) 20000 м    ясно 
+35.2 +6.5 17 +35  1006.6  -1.2  735  261           
15 25.05.18 070 (В) 20000 м    ясно 
+32.6 +10.7 26 +35  1007  0.2  735  263    +35.6       
18 25.05.18 330 (СЗ) 10 км    ясно 
+26.3 +8.4 32 +26  1007.9  0.3  735  269    +35.6       
21 25.05.18 360 (С) 10 км    ясно 
+23.2 +9.2 41 +24  1007.6  -0.5  735  271           
00 26.05.18 тихо ()   10 км    ясно 
+20 +11.1 57 +23  1008.2  0.2  735  274           
03 26.05.18 300 (СЗ) 20000 м    ясно 
+23.6 +9.4 40 +24  1008.7  0.9  736  271           
06 26.05.18 180 (Ю) 20000 м    ясно 
+33.4 +7.7 20 +33  1007.7  0.1  736  263  +18.1         
09 26.05.18 150 (ЮВ) 20000 м    ясно 
+36 +4.8 14 +36  1006.8  -0.8  735  261           
12 26.05.18 130 (ЮВ) 20000 м    ясно 
+37 +5.6 14 +37  1005  -1.7  734  260           
15 26.05.18 140 (ЮВ) 20000 м    ясно 
+33 +7.3 20 +33  1004.8  -0.4  734  263    +37.4       
18 26.05.18 100 (В) 10 км    ясно 
+26.8 +14.9 48 +36  1005.4  0.1  734  266    +37.4       
21 26.05.18 070 (В) 10 км    ясно 
+23.4 +12.8 51 +29  1005.8  0.1  734  270           
Время (UTC), дата Ветер
(°,м/с) 
Видим.   Явления Облачность Т
(°С)
Тd
(°С)
f(%) Тe
(°С)
Pmin
(гПа)
dP
(гПа)
Po
(мм)
O2
(г/м3)
Тmin Tmax R s Состояние
почвы

Для получения пояснительной информации подведите курсор к названию столбца.

ПОГОДА в Керки - архив

Всё, что Вы хотите узнать о погоде в Керки - удобно и подробно!

Выберите нужную дату (начиная с 1 января 2015* года) и нажмите кнопку "Найти".
Будут отображены архивные сводки погоды по пункту Керки, начиная с указанной даты.


Отображать данные в формате CSV (для использования в таблицах Excel)


Внимание! Наш архив погоды предназначен исключительно для личного некоммерческого использования в познавательных целях. Если Вам необходимы официальные справки о состоянии погоды (для производственных, юридических, коммерческих и т.п. целей), обращайтесь в органы Росгидромета.

*Примечание: данная дата относится к архиву по метеостанциям СССР (Россия, СНГ, Балтия).
Архив по метеостанциям Зарубежной Европы и Азии (кроме Китая) хранится 10 дней, по другим регионам земного шара (Китай, Африка, Америка, Австралия, Океания) - 1 день.

Керки - район местоположения метеостанции


Название, широта, долгота, высота метеостанции:
Керки 37.8°ш. 65.2°д. 240 м над ур. моря [Туркменистан]

Дополнительная информация

В oтличие oт бoльшинства пoгoдных сайтoв мы публикуем пoдрoбную метеoинфoрмацию в детальнoм прoфессиoнальнoм фoрмате.

Характеристики температуры и влажнoсти вoздуха измеряются на высoте 2 м в тени вдали oт зданий и деревьев.
Скoрoсть ветра измеряется на высoте 10 м (на урoвне рoста челoвека скoрoсть ветра ниже в 1.5-2 раза). Если метеoстанция нахoдится в гoрoде или в лесу, тo скoрoсть ветра занижена на 2-4 м/с пo сравнению с oткрытым местoм. Скoрoсть ветра над акватoриями крупных рек и oзёр, а также на вершинах хoлмoв на 2-5 м/с выше, чем в oбычных услoвиях.
Атмoсфернoе давление в разных тoчках местнoсти мoжет значительнo oтличаться oт давления на метеoстанции, в зависимoсти oт услoвий рельефа (при пoдъёме на 10 м давление пoнижается примернo на 1 мм рт.ст.).